FW1762 Weather Reports


time (UTC)temp
F
wind
direction
speed
knots
gust
knots
rain 1hr
in
rain 24hr
in
rain mn
in
humidity
%
barometer
mb
20260507093537 60 173 0.0 0.0 0.00 0.00 0.00 57 1016.3
20260507093038 59 207 0.0 0.0 0.00 0.00 0.00 59 1016.3
20260507092540 58 262 0.0 0.0 0.00 0.00 0.00 59 1016.3
20260507092039 59 276 0.0 0.0 0.00 0.00 0.00 60 1016.3
20260507091638 58 236 0.0 0.0 0.00 0.00 0.00 65 1016.3
20260507091212 58 202 0.0 0.0 0.00 0.00 0.00 64 1016.3
20260507090739 57 200 0.0 0.0 0.00 0.00 0.00 65 1016.3
20260507090314 57 159 0.0 0.0 0.00 0.00 0.00 67 1016.3
20260507085538 56 89 0.0 0.0 0.00 0.00 0.00 73 1016.3
20260507085137 55 247 0.0 0.0 0.00 0.00 0.00 73 1016.3
20260507084735 55 157 0.0 0.0 0.00 0.00 0.00 73 1016.3
20260507084316 55 98 0.0 0.0 0.00 0.00 0.00 74 1016.3
20260507083540 54 198 0.0 0.0 0.00 0.00 0.00 76 1016.6
20260507083042 54 229 0.0 0.0 0.00 0.00 0.00 76 1016.3
20260507082537 54 140 0.0 0.0 0.00 0.00 0.00 78 1016.3
20260507082114 54 155 0.0 0.0 0.00 0.00 0.00 81 1016.3
20260507081641 53 88 0.0 0.0 0.00 0.00 0.00 82 1016.6
20260507081236 53 114 0.0 0.0 0.00 0.00 0.00 83 1016.3
20260507080812 52 142 0.0 0.0 0.00 0.00 0.00 83 1016.6
20260507080039 52 214 0.0 0.0 0.00 0.00 0.00 83 1016.6
20260507075540 52 290 0.0 0.0 0.00 0.00 0.00 84 1016.6
20260507075136 52 150 0.0 0.0 0.00 0.00 0.00 84 1016.6
20260507074714 51 78 0.0 0.0 0.00 0.00 0.00 86 1016.3
20260507074239 51 155 0.0 0.0 0.00 0.00 0.00 87 1016.3
20260507073812 50 36 0.0 0.0 0.00 0.00 0.00 87 1016.3
20260507073043 50 121 0.0 0.0 0.00 0.00 0.00 88 1016.3
20260507072540 49 122 0.0 0.9 0.00 0.00 0.00 89 1016.3
20260507072113 49 52 0.0 0.0 0.00 0.00 0.00 90 1016.3
20260507071642 48 55 0.0 0.0 0.00 0.00 0.00 90 1016.6
20260507071239 48 128 0.0 0.0 0.00 0.00 0.00 90 1016.6
20260507070814 48 123 0.0 0.0 0.00 0.00 0.00 91 1016.6
20260507070039 47 140 0.0 0.0 0.00 0.00 0.00 93 1016.6
20260507065538 46 141 0.0 0.0 0.00 0.00 0.00 93 1016.6
20260507065113 45 141 0.0 0.0 0.00 0.00 0.00 93 1016.6
20260507064637 45 141 0.0 0.0 0.00 0.00 0.00 93 1016.6
20260507064212 44 141 0.0 0.0 0.00 0.00 0.00 93 1016.6
20260507063813 44 141 0.0 0.0 0.00 0.00 0.00 93 1016.6
20260507063040 43 139 0.0 0.0 0.00 0.00 0.00 93 1016.6
20260507062542 43 139 0.0 0.0 0.00 0.00 0.00 93 1016.6
20260507062113 42 139 0.0 0.0 0.00 0.00 0.00 93 1016.6
20260507061711 42 139 0.0 0.0 0.00 0.00 0.00 93 1016.3
20260507061310 42 139 0.0 0.0 0.00 0.00 0.00 93 1016.3
20260507060539 41 139 0.0 0.0 0.00 0.00 0.00 93 1016.3
20260507060037 41 139 0.0 0.0 0.00 0.00 0.00 93 1016.3
20260507055614 41 139 0.0 0.0 0.00 0.00 0.00 93 1016.3
20260507055139 41 139 0.0 0.0 0.00 0.00 0.00 93 1016.3
20260507054711 40 139 0.0 0.0 0.00 0.00 0.00 93 1016.3
20260507054241 40 139 0.0 0.0 0.00 0.00 0.00 93 1016.3
20260507053811 40 139 0.0 0.0 0.00 0.00 0.00 92 1016.3
20260507053042 40 139 0.0 0.0 0.00 0.00 0.00 92 1015.9
20260507052542 40 139 0.0 0.0 0.00 0.00 0.00 92 1015.9
20260507052041 40 139 0.0 0.0 0.00 0.00 0.00 92 1015.9
20260507051540 40 139 0.0 0.0 0.00 0.00 0.00 92 1015.9
20260507051115 40 139 0.0 0.0 0.00 0.00 0.00 92 1015.9
20260507050711 40 139 0.0 0.0 0.00 0.00 0.00 92 1015.9
20260507050241 40 139 0.0 0.0 0.00 0.00 0.00 92 1015.9
20260507045812 40 139 0.0 0.0 0.00 0.00 0.00 92 1015.9
20260507045032 40 139 0.0 0.0 0.00 0.00 0.00 92 1015.9
20260507044529 40 139 0.0 0.0 0.00 0.00 0.00 92 1015.9
20260507044030 40 139 0.0 0.0 0.00 0.00 0.00 92 1015.9
20260507043533 40 125 0.0 0.0 0.00 0.00 0.00 92 1015.9
20260507043030 40 118 0.0 0.0 0.00 0.00 0.00 92 1015.9
20260507042529 40 112 0.0 0.0 0.00 0.00 0.00 92 1015.9
20260507042029 40 112 0.0 0.0 0.00 0.00 0.00 92 1015.9
20260507041532 41 112 0.0 0.0 0.00 0.00 0.00 92 1015.9
20260507041029 41 112 0.0 0.0 0.00 0.00 0.00 92 1015.9
20260507040527 41 112 0.0 0.0 0.00 0.00 0.00 92 1015.9
20260507040031 41 112 0.0 0.0 0.00 0.00 0.00 92 1015.9
20260507035528 41 112 0.0 0.0 0.00 0.00 0.00 92 1015.9
20260507035028 41 112 0.0 0.0 0.00 0.00 0.00 92 1015.9
20260507034539 41 112 0.0 0.0 0.00 0.00 0.00 92 1015.9
20260507034128 41 112 0.0 0.0 0.00 0.00 0.00 92 1015.9
20260507033639 41 112 0.0 0.0 0.00 0.00 0.00 92 1015.9
20260507033227 42 112 0.0 0.0 0.00 0.00 0.00 92 1015.9
20260507032742 42 112 0.0 0.0 0.00 0.00 0.00 92 1015.9
20260507032327 42 112 0.0 0.0 0.00 0.00 0.00 92 1015.9
20260507031527 42 112 0.0 0.0 0.00 0.00 0.00 92 1015.9
20260507031041 42 112 0.0 0.0 0.00 0.00 0.00 92 1015.9
20260507030626 42 112 0.0 0.0 0.00 0.00 0.00 92 1015.6
20260507030141 42 112 0.0 0.0 0.00 0.00 0.00 92 1015.6
20260507025739 42 112 0.0 0.0 0.00 0.00 0.00 91 1015.6
20260507025325 42 112 0.0 0.0 0.00 0.00 0.00 91 1015.6
20260507024526 42 112 0.0 0.0 0.00 0.00 0.00 91 1015.6
20260507024025 42 112 0.0 0.0 0.00 0.00 0.00 91 1015.6
20260507023527 43 112 0.0 0.0 0.00 0.00 0.00 91 1015.6
20260507023026 43 112 0.0 0.0 0.00 0.00 0.00 91 1015.6
20260507022526 43 112 0.0 0.0 0.00 0.00 0.00 91 1015.6
20260507022025 43 112 0.0 0.0 0.00 0.00 0.00 90 1015.6
20260507021526 43 112 0.0 0.0 0.00 0.00 0.00 90 1015.6
20260507021027 43 112 0.0 0.0 0.00 0.00 0.00 90 1015.6
20260507020524 43 112 0.0 0.0 0.00 0.00 0.00 90 1015.6
20260507020028 43 112 0.0 0.0 0.00 0.00 0.00 90 1015.6
20260507015524 44 112 0.0 0.0 0.00 0.00 0.00 90 1015.6
20260507015023 44 112 0.0 0.0 0.00 0.00 0.00 90 1015.6
20260507014537 44 112 0.0 0.0 0.00 0.00 0.00 90 1015.6
20260507014123 44 112 0.0 0.0 0.00 0.00 0.00 90 1015.6
20260507013639 44 112 0.0 0.0 0.00 0.00 0.00 89 1015.6
20260507013223 44 112 0.0 0.0 0.00 0.00 0.00 89 1015.6
20260507012741 44 112 0.0 0.0 0.00 0.00 0.00 89 1015.6
20260507012322 44 112 0.0 0.0 0.00 0.00 0.00 89 1015.2
20260507011523 45 112 0.0 0.0 0.00 0.00 0.00 89 1015.6
20260507011023 45 112 0.0 0.0 0.00 0.00 0.00 89 1015.2
20260507010522 45 112 0.0 0.0 0.00 0.00 0.00 88 1015.6
20260507010029 45 112 0.0 0.0 0.00 0.00 0.00 88 1015.2
20260507005539 45 112 0.0 0.0 0.00 0.00 0.00 88 1015.2
20260507005135 45 112 0.0 0.0 0.00 0.00 0.00 87 1015.6
20260507004722 45 112 0.0 0.0 0.00 0.00 0.00 87 1015.6
20260507004241 45 112 0.0 0.0 0.00 0.00 0.00 87 1015.2
20260507003823 45 112 0.0 0.0 0.00 0.00 0.00 86 1015.6
20260507003021 45 112 0.0 0.0 0.00 0.00 0.00 86 1015.6
20260507002541 46 112 0.0 0.0 0.00 0.00 0.00 86 1015.6
20260507002135 46 112 0.0 0.0 0.00 0.00 0.00 86 1015.6
20260507001720 46 112 0.0 0.0 0.00 0.00 0.00 85 1015.6
20260507001319 46 112 0.0 0.0 0.00 0.00 0.00 85 1015.6
20260507000542 46 112 0.0 0.0 0.00 0.00 0.00 85 1015.6
20260507000138 46 112 0.0 0.0 0.00 0.00 0.00 84 1015.6
20260506235736 47 112 0.0 0.0 0.00 0.00 0.00 83 1015.6
20260506235321 47 112 0.0 0.0 0.00 0.00 0.00 83 1015.6
20260506234539 47 112 0.0 0.0 0.00 0.00 0.00 83 1015.2
20260506234038 47 112 0.0 0.0 0.00 0.00 0.00 82 1015.2
20260506233618 48 112 0.0 0.0 0.00 0.00 0.00 82 1015.2
20260506233145 48 112 0.0 0.0 0.00 0.00 0.00 81 1015.2
20260506232719 48 112 0.0 0.0 0.00 0.00 0.00 81 1015.2
20260506232238 49 112 0.0 0.0 0.00 0.00 0.00 80 1015.2
20260506231818 49 112 0.0 0.0 0.00 0.00 0.00 79 1015.2
20260506231018 49 112 0.0 0.0 0.00 0.00 0.00 79 1015.2
20260506230519 49 112 0.0 0.0 0.00 0.00 0.00 78 1015.2
20260506230019 50 112 0.0 0.0 0.00 0.00 0.00 78 1015.2
20260506225535 50 112 0.0 0.0 0.00 0.00 0.00 78 1015.2
20260506225119 50 112 0.0 0.0 0.00 0.00 0.00 77 1015.2
20260506224641 50 112 0.0 0.0 0.00 0.00 0.00 77 1015.2
20260506224239 50 112 0.0 0.0 0.00 0.00 0.00 76 1015.2
20260506223817 51 112 0.0 0.0 0.00 0.00 0.00 76 1015.2
20260506223039 51 112 0.0 0.0 0.00 0.00 0.00 76 1015.2
20260506222617 51 113 0.0 0.0 0.00 0.00 0.00 76 1015.2
20260506222141 51 113 0.0 0.0 0.00 0.00 0.00 76 1015.2
20260506221739 51 329 0.0 0.0 0.00 0.00 0.00 75 1015.2
20260506221315 51 50 0.0 0.0 0.00 0.00 0.00 75 1014.9
20260506220536 52 37 0.0 0.0 0.00 0.00 0.00 75 1014.9
20260506220043 52 24 0.0 0.0 0.00 0.00 0.00 75 1014.9
20260506215637 52 265 0.0 0.0 0.00 0.00 0.00 75 1014.9
20260506215216 52 92 0.0 0.0 0.00 0.00 0.00 74 1014.9
20260506214738 52 296 0.0 0.0 0.00 0.00 0.00 74 1014.9
20260506214315 52 307 0.0 0.0 0.00 0.00 0.00 74 1015.2
20260506213538 52 49 0.0 0.0 0.00 0.00 0.00 74 1014.9
20260506213044 52 74 0.0 0.0 0.00 0.00 0.00 73 1014.9
20260506212615 52 90 0.0 0.0 0.00 0.00 0.00 73 1014.9
20260506212139 52 325 0.0 0.0 0.00 0.00 0.00 73 1014.9
20260506211717 52 41 0.0 0.0 0.00 0.00 0.00 73 1014.9
20260506211242 53 40 0.0 0.0 0.00 0.00 0.00 72 1014.9
20260506210816 53 24 0.0 0.0 0.00 0.00 0.00 71 1014.9
20260506210040 53 36 0.0 0.0 0.00 0.00 0.00 71 1014.9
20260506205537 53 24 0.0 0.0 0.00 0.00 0.00 71 1014.9
20260506205116 53 54 0.0 0.0 0.00 0.00 0.00 70 1014.9
20260506204644 53 118 0.0 0.0 0.00 0.00 0.00 70 1014.9
20260506204236 53 44 0.0 0.0 0.00 0.00 0.00 69 1014.6
20260506203812 53 44 0.0 0.0 0.00 0.00 0.00 68 1014.6
20260506203042 53 44 0.0 0.0 0.00 0.00 0.00 68 1014.6
20260506202535 53 44 0.0 0.0 0.00 0.00 0.00 67 1014.6
20260506202042 53 109 0.0 0.0 0.00 0.00 0.00 67 1014.6
20260506201614 53 115 0.0 0.0 0.00 0.00 0.00 68 1014.6
20260506201139 53 5 0.0 0.0 0.00 0.00 0.00 67 1014.6
20260506200738 53 41 0.0 0.0 0.00 0.00 0.00 66 1014.6
20260506200314 53 73 0.0 0.0 0.00 0.00 0.00 66 1014.2
20260506195538 54 313 0.0 0.0 0.00 0.00 0.00 66 1014.2
20260506195040 54 46 0.0 0.0 0.00 0.00 0.00 66 1014.2
20260506194617 54 46 0.0 0.9 0.00 0.00 0.00 65 1014.2
20260506194214 54 38 0.0 0.0 0.00 0.00 0.00 65 1014.2
20260506193812 54 355 0.0 0.0 0.00 0.00 0.00 65 1013.9
20260506193036 54 360 0.0 0.0 0.00 0.00 0.00 63 1013.9
20260506192540 54 267 0.0 0.0 0.00 0.00 0.00 63 1013.9
20260506192040 54 267 0.0 0.0 0.00 0.00 0.00 64 1013.9
20260506191535 54 38 0.0 0.0 0.00 0.00 0.00 63 1013.9
20260506191116 54 39 0.0 0.0 0.00 0.00 0.00 63 1013.9
20260506190647 55 19 0.0 0.0 0.00 0.00 0.00 63 1013.9
20260506190216 55 19 0.0 0.0 0.00 0.00 0.00 63 1013.9
20260506185743 55 244 0.0 0.0 0.00 0.00 0.00 64 1013.9
20260506185015 55 34 0.0 0.0 0.00 0.00 0.00 63 1013.9
20260506184537 55 34 0.0 0.0 0.00 0.00 0.00 64 1013.5
20260506184038 55 74 0.0 0.0 0.00 0.00 0.00 62 1013.5
20260506183537 55 70 0.0 0.0 0.00 0.00 0.00 64 1013.5
20260506183038 55 281 0.0 0.0 0.00 0.00 0.00 63 1013.5
20260506182613 55 281 0.0 0.0 0.00 0.00 0.00 63 1013.5
20260506182212 55 302 0.0 0.0 0.00 0.00 0.00 62 1013.5
20260506181742 56 70 0.0 0.0 0.00 0.00 0.00 63 1013.5
20260506181312 56 339 0.0 0.0 0.00 0.00 0.00 63 1013.5
20260506180515 56 337 0.0 0.0 0.00 0.00 0.00 61 1013.2
20260506180110 56 140 0.0 0.0 0.00 0.00 0.00 62 1013.2
20260506175642 56 75 0.0 0.0 0.00 0.00 0.00 61 1013.2
20260506175239 56 58 0.0 0.0 0.00 0.00 0.00 61 1013.2
20260506174815 56 42 0.0 0.0 0.00 0.00 0.00 61 1013.2
20260506174038 56 57 0.0 0.0 0.00 0.00 0.00 61 1013.2
20260506173538 56 345 0.0 0.0 0.00 0.00 0.00 61 1013.2
20260506173039 56 83 0.0 0.0 0.00 0.00 0.00 61 1013.2
20260506172541 56 26 0.0 0.0 0.00 0.00 0.00 61 1012.9
20260506172124 56 324 0.0 0.0 0.00 0.00 0.00 62 1012.9
20260506171648 56 44 0.0 0.0 0.00 0.00 0.00 61 1012.9
20260506171225 56 71 0.0 0.0 0.00 0.00 0.00 61 1012.9
20260506170823 56 146 0.0 0.0 0.00 0.00 0.00 61 1012.9
20260506170023 56 128 0.0 0.0 0.00 0.00 0.00 61 1012.9
20260506165521 56 134 0.0 0.0 0.00 0.00 0.00 60 1012.9
20260506165042 56 355 0.0 0.0 0.00 0.00 0.00 60 1012.9
20260506164623 56 55 0.0 0.0 0.00 0.00 0.00 60 1012.9
20260506164223 56 128 0.0 0.0 0.00 0.00 0.00 61 1012.9
20260506163741 56 313 0.0 0.0 0.00 0.00 0.00 61 1012.9
20260506163321 56 66 0.0 0.0 0.00 0.00 0.00 61 1012.9
20260506162521 56 153 0.0 0.0 0.00 0.00 0.00 61 1012.9
20260506162041 56 65 0.0 0.0 0.00 0.00 0.00 61 1012.9
20260506161538 56 291 0.0 0.0 0.00 0.00 0.00 61 1012.9
20260506161137 56 329 0.0 0.0 0.00 0.00 0.00 62 1013.2
20260506160719 56 115 0.0 0.0 0.00 0.00 0.00 63 1013.2
20260506160245 56 325 0.0 0.0 0.00 0.00 0.00 62 1013.2
20260506155820 56 327 0.0 0.0 0.00 0.00 0.00 62 1013.2
20260506155034 56 145 0.0 0.0 0.00 0.00 0.00 61 1013.2
20260506154537 56 192 0.0 0.0 0.00 0.00 0.00 61 1013.2
20260506154121 57 235 0.0 0.0 0.00 0.00 0.00 61 1013.2
20260506153641 57 97 0.0 0.0 0.00 0.00 0.00 60 1013.2
20260506153219 58 38 0.0 0.0 0.00 0.00 0.00 60 1013.2
20260506152739 58 90 0.0 0.0 0.00 0.00 0.00 60 1013.2
20260506152318 58 115 0.0 0.0 0.00 0.00 0.00 60 1013.2
20260506151517 58 360 0.0 0.0 0.00 0.00 0.00 60 1012.9
20260506151042 57 322 0.0 0.0 0.00 0.00 0.00 60 1012.9
20260506150618 57 325 0.0 0.0 0.00 0.00 0.00 60 1012.9
20260506150140 57 273 0.0 0.0 0.00 0.00 0.00 59 1013.2
20260506145737 57 300 0.0 0.0 0.00 0.00 0.00 60 1013.2
20260506145319 56 267 0.0 0.0 0.00 0.00 0.00 60 1013.2
20260506144536 57 355 0.0 0.0 0.00 0.00 0.00 59 1013.2
20260506144116 57 308 0.0 0.0 0.00 0.00 0.00 59 1013.2
20260506143642 57 325 0.0 0.0 0.00 0.00 0.00 60 1013.2
20260506143239 57 334 0.0 0.0 0.00 0.00 0.00 60 1013.2
20260506142817 57 258 0.0 0.9 0.00 0.00 0.00 60 1013.2
20260506142016 57 123 0.0 0.0 0.00 0.00 0.00 61 1013.2
20260506141517 57 321 0.0 0.0 0.00 0.00 0.00 60 1013.2
20260506141040 58 340 0.0 0.0 0.00 0.00 0.00 59 1013.2
20260506140538 58 182 0.0 0.0 0.00 0.00 0.00 59 1013.2
20260506140115 58 289 0.0 0.0 0.00 0.00 0.00 58 1013.2
20260506135643 59 155 0.0 0.0 0.00 0.00 0.00 56 1013.2
20260506135216 60 16 0.0 0.0 0.00 0.00 0.00 54 1013.2
20260506134741 61 277 0.0 0.0 0.00 0.00 0.00 54 1013.2
20260506134315 61 135 0.0 0.0 0.00 0.00 0.00 53 1012.9
20260506133514 62 41 0.0 0.0 0.00 0.00 0.00 53 1012.9
20260506133043 62 327 0.0 0.0 0.00 0.00 0.00 52 1012.9
20260506132538 62 109 0.0 0.9 0.00 0.00 0.00 54 1012.9
20260506132038 62 99 0.0 0.0 0.00 0.00 0.00 52 1012.9
20260506131543 62 74 0.0 0.0 0.00 0.00 0.00 53 1012.9
20260506131137 62 26 0.0 0.0 0.00 0.00 0.00 52 1013.2
20260506130714 62 58 0.0 0.9 0.00 0.00 0.00 51 1013.2
20260506130237 62 158 0.0 0.0 0.00 0.00 0.00 50 1013.2
20260506125812 62 157 0.0 0.0 0.00 0.00 0.00 50 1012.9
20260506125037 62 26 0.0 0.0 0.00 0.00 0.00 53 1012.9
20260506124536 61 360 0.0 0.0 0.00 0.00 0.00 53 1012.9
20260506124040 61 86 0.0 0.0 0.00 0.00 0.00 53 1012.9
20260506123614 60 313 0.0 0.0 0.00 0.00 0.00 55 1012.9
20260506123143 60 273 0.0 0.0 0.00 0.00 0.00 54 1012.9
20260506122740 60 305 0.0 0.9 0.00 0.00 0.00 54 1012.9
20260506122312 60 171 0.0 0.9 0.00 0.00 0.00 55 1013.2
20260506121536 60 76 0.0 0.0 0.00 0.00 0.00 55 1013.2
20260506121042 60 36 0.0 0.0 0.00 0.00 0.00 53 1013.2
20260506120641 60 318 0.0 0.9 0.00 0.00 0.00 55 1013.2
20260506120215 59 219 0.0 0.0 0.00 0.00 0.00 56 1013.2
20260506115812 59 127 0.0 0.0 0.00 0.00 0.00 55 1013.2
20260506115042 59 287 0.0 0.0 0.00 0.00 0.00 54 1013.2
20260506114613 59 5 0.0 0.0 0.00 0.00 0.00 57 1013.2
20260506114142 58 50 0.0 0.0 0.00 0.00 0.00 55 1013.2
20260506113713 58 24 0.0 0.0 0.00 0.00 0.00 56 1013.2
20260506113242 58 101 0.0 0.0 0.00 0.00 0.00 56 1013.2
20260506112813 58 279 0.0 0.0 0.00 0.00 0.00 56 1013.2
20260506112040 58 78 0.0 0.0 0.00 0.00 0.00 57 1013.2
20260506111614 58 350 0.0 0.0 0.00 0.00 0.00 56 1013.2
20260506111139 58 308 0.0 0.0 0.00 0.00 0.00 57 1013.2
20260506110712 58 245 0.0 0.0 0.00 0.00 0.00 54 1013.2
20260506110311 58 355 0.0 0.0 0.00 0.00 0.00 55 1013.2
20260506105541 58 5 0.0 0.0 0.00 0.00 0.00 55 1013.2
20260506105039 58 329 0.0 0.0 0.00 0.00 0.00 57 1013.2
20260506104543 58 334 0.0 0.0 0.00 0.00 0.00 56 1013.2
20260506104137 58 51 0.0 0.0 0.00 0.00 0.00 56 1013.2
20260506103711 58 24 0.0 2.6 0.00 0.00 0.00 56 1013.2
20260506103244 58 218 0.0 0.0 0.00 0.00 0.00 58 1013.2
20260506102813 58 23 0.0 0.0 0.00 0.00 0.00 56 1013.2
20260506102039 57 30 0.0 0.0 0.00 0.00 0.00 58 1013.2
20260506101539 57 360 0.0 0.0 0.00 0.00 0.00 59 1013.2
20260506101039 56 279 0.0 0.0 0.00 0.00 0.00 62 1013.2
20260506100539 56 97 0.0 0.0 0.00 0.00 0.00 63 1013.2
20260506100039 55 304 0.0 0.0 0.00 0.00 0.00 66 1013.2
20260506095639 54 306 0.0 0.0 0.00 0.00 0.00 66 1013.2
20260506095239 54 273 0.0 0.0 0.00 0.00 0.00 66 1013.2
20260506094829 54 166 0.0 0.0 0.00 0.00 0.00 66 1013.2
20260506094029 54 174 0.0 0.0 0.00 0.00 0.00 67 1013.2